Regional Weather Roundup
Issued by NWS

Home | Current Version | Previous Version | Graphics & Text | Print | Product List | Glossary On
Versions: 1 2 3 4 5 6 7 8 9 10 11 12 13 14 15 16 17 18 19 20 21 22 23 24 25 26 27 28 29 30 31 32 33 34 35 36 37 38 39 40 41 42 43 44 45 46 47 48 49 50
000
ASUS43 KLMK 232302
RWRKY
KENTUCKY REGIONAL WEATHER ROUNDUP
NATIONAL WEATHER SERVICE LOUISVILLE KY
700 PM EDT TUE SEP 23 2014

NOTE "FAIR" INDICATES FEW OR NO CLOUDS BELOW 12,000 FEET
WITH NO SIGNIFICANT WEATHER AND/OR OBSTRUCTIONS TO VISIBILITY.

KYZ001>023-026-027-061>063-070>075-240000-
WESTERN AND SOUTH CENTRAL KENTUCKY

CITY           SKY/WX    TMP DP  RH WIND       PRES   REMARKS
PADUCAH        CLEAR     74  48  39 NE8       30.20S
HENDERSON      CLEAR     72  43  35 NE7       30.23R
OWENSBORO      CLEAR     73  46  38 E10       30.23S
HOPKINSVILLE   CLEAR     73  45  36 NE12      30.20S
BOWLING GREEN  CLEAR     73  45  36 E8        30.22S
GLASGOW        CLEAR     71  43  36 CALM      30.23S
$$

KYZ024-025-028>034-038-045-046-053-240000-
NORTH CENTRAL KENTUCKY

CITY           SKY/WX    TMP DP  RH WIND       PRES   REMARKS
LOUISVILLE/SDF PTCLDY    72  44  36 E10       30.25F
LOUISVILLE/LOU CLEAR     72  44  36 NE6       30.26S
FORT KNOX      CLEAR     69  49  49 NE6       30.24S
$$

KYZ035>037-039>044-047>052-055>060-089>105-240000-
NORTHEAST KENTUCKY

CITY           SKY/WX    TMP DP  RH WIND       PRES   REMARKS
LEXINGTON      CLEAR     69  45  41 NE8       30.27R
COVINGTON      CLEAR     70  42  36 E3        30.28S
FRANKFORT      CLEAR     68  43  40 E7        30.26S
$$

KYZ054-064>069-076>088-106>120-240000-
SOUTHEAST KENTUCKY

CITY           SKY/WX    TMP DP  RH WIND       PRES   REMARKS
JACKSON        CLEAR     64  50  60 CALM      30.28S
LONDON         CLEAR     69  51  52 NE6       30.27R
SOMERSET       CLEAR     70  46  43 E5        30.26S
MIDDLESBORO    CLEAR     68  55  63 CALM      30.24S
MONTICELLO     CLEAR     71  51  49 E5        30.26S
$$




USA.gov is the U.S. government's official web portal to all federal, state and local government web resources and services.